Content
SEND FEEDBACK

Daily
Averages
Monthly
Summary
United States of America

CHASE CITY, VIRGINIA


Home > North America > United States > Virginia
Elevation: 518 feet     Latitude: 36 50N     Longitude: 078 28W

WEATHER
 
SELECT A DAY
Number of Records: 757,324;   Date Range: 1/23/97 - 7/20/14
 
SHARE

PRINT THIS DATA

[ ← Previous Day ]
WEATHER ALMANAC - JANUARY 31, 2013
[ Next Day → ]
[ °C ]   °F
Weather ElementAverageHighLow
Barometer29.79 in30.03 in (11:55 pm)29.42 in (12:35 am)
Wind Speed11.7 mph27.6 mph (12:35 am)
Wind Gust39.1 mph (12:35 am)
Weather ElementAverage
Visibility9.8 mi
Wind DirectionWSW (233.9 °)

Weather ElementTotal
Precipitation0.58 in
Heating Degree Days65 (Base 65)
Averaged from 71 records on January 31, 2013
WEATHER CONDITIONS BREAKOUT
WIND DIRECTION BREAKOUT
WEATHER BY HOUR - JANUARY 31, 2013
[ °C ]   °F
Local TimeTemperatureDewpointHumidityBarometerVisibilityWind DirectionWind SpeedGust SpeedPrecipitationEventsConditions
12:35 AM0.0 °F0.0 °F29.42 in2.0 miSW (220°)27.6 mph39.1 mph0.31 inRainHeavy Rain
12:55 AM0.0 °F0.0 °F29.45 in7.0 miSW (230°)21.9 mph36.8 mph0.04 inRainRain
1:15 AM0.0 °F0.0 °F29.45 in10.0 miSW (220°)21.9 mph33.4 mph0.05 inDrizzle
1:35 AM0.0 °F0.0 °F29.46 in10.0 miSW (220°)21.9 mph33.4 mph0.10 inRainRain
1:55 AM0.0 °F0.0 °F29.44 in10.0 miSSW (210°)15.0 mph27.6 mph0.01 inRainLight Rain
2:15 AM0.0 °F0.0 °F29.45 in10.0 miSW (220°)13.8 mph28.8 mph0.03 inRainRain
2:35 AM0.0 °F0.0 °F29.44 in10.0 miSSW (210°)13.8 mph20.7 mph0.04 inRainLight Rain
2:55 AM0.0 °F0.0 °F29.46 in10.0 miSW (220°)17.3 mph27.6 mphOvercast
3:15 AM0.0 °F0.0 °F29.45 in10.0 miSW (220°)19.6 mph25.3 mphMostly Cloudy
3:35 AM0.0 °F0.0 °F29.47 in10.0 miSSW (210°)17.3 mph27.6 mphMostly Cloudy
3:55 AM0.0 °F0.0 °F29.48 in10.0 miSW (230°)19.6 mph31.1 mphMostly Cloudy
4:15 AM0.0 °F0.0 °F29.49 in10.0 miSW (220°)17.3 mph25.3 mphOvercast
4:35 AM0.0 °F0.0 °F29.51 in10.0 miSW (230°)15.0 mph26.5 mphOvercast
4:55 AM0.0 °F0.0 °F29.53 in7.0 miWSW (240°)15.0 mph31.1 mphRainRain
5:15 AM0.0 °F0.0 °F29.55 in10.0 miSW (230°)12.7 mph27.6 mphOvercast
5:35 AM0.0 °F0.0 °F29.57 in10.0 miWest (270°)10.4 mph24.2 mphOvercast
5:55 AM0.0 °F0.0 °F29.59 in10.0 miWest (260°)12.7 mph25.3 mphOvercast
6:15 AM0.0 °F0.0 °F29.62 in10.0 miWest (270°)11.5 mph27.6 mphOvercast
6:35 AM0.0 °F0.0 °F29.64 in10.0 miWest (270°)11.5 mph23.0 mphOvercast
6:55 AM0.0 °F0.0 °F29.66 in10.0 miWest (260°)18.4 mph27.6 mphMostly Cloudy
7:15 AM0.0 °F0.0 °F29.67 in10.0 miWest (260°)12.7 mph24.2 mphScattered Clouds
7:35 AM0.0 °F0.0 °F29.69 in10.0 miWest (270°)10.4 mph20.7 mphClear
7:55 AM0.0 °F0.0 °F29.72 in10.0 miWest (280°)11.5 mph23.0 mphClear
8:15 AM0.0 °F0.0 °F29.74 in10.0 miWest (280°)12.7 mph24.2 mphClear
8:35 AM0.0 °F0.0 °F29.76 in10.0 miWest (270°)15.0 mph26.5 mphClear
8:55 AM0.0 °F0.0 °F29.77 in10.0 miWest (280°)11.5 mph31.1 mphClear
9:15 AM0.0 °F0.0 °F29.78 in10.0 miWest (280°)12.7 mph25.3 mphClear
9:35 AM0.0 °F0.0 °F29.80 in10.0 miWest (260°)13.8 mph28.8 mphClear
9:55 AM0.0 °F0.0 °F29.81 in10.0 miWest (270°)10.4 mph26.5 mphClear
10:15 AM0.0 °F0.0 °F29.83 in10.0 miWest (280°)18.4 mph31.1 mphClear
10:35 AM0.0 °F0.0 °F29.83 in10.0 miWest (260°)11.5 mph23.0 mphClear
10:55 AM0.0 °F0.0 °F29.84 in10.0 miWest (280°)13.8 mph25.3 mphClear
11:15 AM0.0 °F0.0 °F29.85 in10.0 miWest (260°)13.8 mph26.5 mphClear
11:35 AM0.0 °F0.0 °F29.85 in10.0 miWest (280°)9.2 mph29.9 mphClear
11:55 AM0.0 °F0.0 °F29.86 in10.0 miWest (260°)9.2 mph26.5 mphClear
12:15 PM0.0 °F0.0 °F29.84 in10.0 miWest (280°)10.4 mph32.2 mphClear
12:35 PM0.0 °F0.0 °F29.84 in10.0 miWSW (250°)13.8 mph26.5 mphClear
12:55 PM0.0 °F0.0 °F29.84 in10.0 miWSW (250°)17.3 mph31.1 mphClear
1:15 PM0.0 °F0.0 °F29.83 in10.0 miWest (260°)15.0 mph24.2 mphClear
1:35 PM0.0 °F0.0 °F29.84 in10.0 miWSW (250°)17.3 mph26.5 mphClear
1:55 PM0.0 °F0.0 °F29.84 in10.0 miWSW (240°)18.4 mph25.3 mphScattered Clouds
2:15 PM0.0 °F0.0 °F29.85 in10.0 miWSW (250°)17.3 mph25.3 mphScattered Clouds
2:35 PM0.0 °F0.0 °F29.86 in10.0 miWSW (250°)13.8 mph21.9 mphMostly Cloudy
2:55 PM0.0 °F0.0 °F29.86 in10.0 miWSW (240°)15.0 mph28.8 mphOvercast
3:15 PM0.0 °F0.0 °F29.88 in10.0 miWest (260°)17.3 mph35.7 mphMostly Cloudy
3:35 PM0.0 °F0.0 °F29.89 in10.0 miWSW (250°)17.3 mph29.9 mphScattered Clouds
3:55 PM0.0 °F0.0 °F29.90 in10.0 miWest (270°)13.8 mph25.3 mphMostly Cloudy
4:15 PM0.0 °F0.0 °F29.91 in10.0 miWest (260°)11.5 mph17.3 mphMostly Cloudy
4:35 PM0.0 °F0.0 °F29.92 in10.0 miWest (280°)10.4 mph19.6 mphOvercast
4:55 PM0.0 °F0.0 °F29.93 in10.0 miWest (270°)13.8 mph20.7 mphMostly Cloudy
5:15 PM0.0 °F0.0 °F29.94 in10.0 miWNW (290°)8.1 mphMostly Cloudy
5:35 PM0.0 °F0.0 °F29.95 in10.0 miWest (280°)8.1 mph18.4 mphScattered Clouds
5:55 PM0.0 °F0.0 °F29.96 in10.0 miWest (260°)8.1 mphScattered Clouds
6:15 PM0.0 °F0.0 °F29.97 in10.0 miWest (280°)6.9 mphScattered Clouds
6:35 PM0.0 °F0.0 °F29.98 in10.0 miWest (280°)6.9 mphClear
6:55 PM0.0 °F0.0 °F29.99 in10.0 miWest (260°)5.8 mphClear
7:15 PM0.0 °F0.0 °F29.99 in10.0 miWest (270°)5.8 mphClear
7:35 PM0.0 °F0.0 °F30.00 in10.0 miWSW (250°)4.6 mphClear
7:55 PM0.0 °F0.0 °F30.00 in10.0 miWSW (240°)3.5 mphClear
8:15 PM0.0 °F0.0 °F30.00 in10.0 miWSW (240°)4.6 mphClear
8:35 PM0.0 °F0.0 °F30.01 in10.0 miWSW (250°)6.9 mphClear
8:55 PM0.0 °F0.0 °F30.01 in10.0 miWSW (240°)3.5 mphClear
9:15 PM0.0 °F0.0 °F30.02 in10.0 miCalmClear
9:35 PM0.0 °F0.0 °F30.02 in10.0 miSW (230°)3.5 mphClear
9:55 PM0.0 °F0.0 °F30.02 in10.0 miSW (230°)4.6 mphClear
10:15 PM0.0 °F0.0 °F30.02 in10.0 miCalmClear
10:35 PM0.0 °F0.0 °F30.02 in10.0 miSW (220°)3.5 mphClear
10:55 PM0.0 °F0.0 °F30.02 in10.0 miCalmClear
11:15 PM0.0 °F0.0 °F30.02 in10.0 miCalmClear
11:35 PM0.0 °F0.0 °F30.02 in10.0 miCalmClear
11:55 PM0.0 °F0.0 °F30.03 in10.0 miSSW (200°)4.6 mphClear
Hourly data recorded from KAVC, located miles away from Chase City, Virginia







STORIES FROM OUR PARTNERS